| time (UTC) | temp F | wind direction | speed knots | gust knots | rain 1hr in | rain 24hr in | rain mn in | humidity % | barometer mb |
| 20260507215002 | 71 | 256 | 3.5 | 10.4 | 0.00 | 0.00 | 0.00 | 12 | 1018.9 |
| 20260507214511 | 72 | 247 | 4.3 | 8.7 | 0.00 | 0.00 | 0.00 | 12 | 1019.0 |
| 20260507214001 | 71 | 277 | 0.0 | 9.6 | 0.00 | 0.00 | 0.00 | 12 | 1019.1 |
| 20260507213515 | 71 | 286 | 4.3 | 10.4 | 0.00 | 0.00 | 0.00 | 13 | 1019.2 |
| 20260507213109 | 71 | 306 | 5.2 | 10.4 | 0.00 | 0.00 | 0.00 | 12 | 1019.3 |
| 20260507212508 | 71 | 235 | 1.7 | 8.7 | 0.00 | 0.00 | 0.00 | 13 | 1019.4 |
| 20260507212101 | 70 | 198 | 2.6 | 8.7 | 0.00 | 0.00 | 0.00 | 13 | 1019.5 |
| 20260507211503 | 69 | 214 | 5.2 | 12.2 | 0.00 | 0.00 | 0.00 | 13 | 1019.7 |
| 20260507211011 | 69 | 318 | 3.5 | 10.4 | 0.00 | 0.00 | 0.00 | 13 | 1019.6 |
| 20260507210502 | 69 | 297 | 4.3 | 9.6 | 0.00 | 0.00 | 0.00 | 14 | 1019.7 |
| 20260507210026 | 70 | 308 | 5.2 | 9.6 | 0.00 | 0.00 | 0.00 | 13 | 1019.9 |
| 20260507205604 | 70 | 223 | 2.6 | 11.3 | 0.00 | 0.00 | 0.00 | 14 | 1019.9 |
| 20260507205006 | 69 | 271 | 4.3 | 11.3 | 0.00 | 0.00 | 0.00 | 14 | 1020.1 |
| 20260507204609 | 69 | 329 | 1.7 | 11.3 | 0.00 | 0.00 | 0.00 | 15 | 1020.0 |
| 20260507204054 | 68 | 327 | 5.2 | 11.3 | 0.00 | 0.00 | 0.00 | 16 | 1020.1 |
| 20260507203559 | 68 | 302 | 3.5 | 12.2 | 0.00 | 0.00 | 0.00 | 16 | 1020.1 |
| 20260507203105 | 68 | 210 | 5.2 | 12.2 | 0.00 | 0.00 | 0.00 | 16 | 1020.3 |
| 20260507202507 | 68 | 309 | 2.6 | 10.4 | 0.00 | 0.00 | 0.00 | 16 | 1020.3 |
| 20260507202105 | 67 | 207 | 2.6 | 15.6 | 0.00 | 0.00 | 0.00 | 17 | 1020.5 |
| 20260507201509 | 67 | 296 | 7.8 | 15.6 | 0.00 | 0.00 | 0.00 | 17 | 1020.5 |
| 20260507201102 | 67 | 285 | 6.1 | 10.4 | 0.00 | 0.00 | 0.00 | 17 | 1020.5 |
| 20260507200504 | 67 | 194 | 2.6 | 10.4 | 0.00 | 0.00 | 0.00 | 17 | 1020.7 |
| 20260507200058 | 66 | 298 | 2.6 | 10.4 | 0.00 | 0.00 | 0.00 | 16 | 1020.7 |
| 20260507195549 | 68 | 290 | 5.2 | 9.6 | 0.00 | 0.00 | 0.00 | 16 | 1020.7 |
| 20260507195059 | 68 | 57 | 0.9 | 7.0 | 0.00 | 0.00 | 0.00 | 17 | 1020.7 |
| 20260507194636 | 67 | 217 | 1.7 | 8.7 | 0.00 | 0.00 | 0.00 | 16 | 1020.9 |
| 20260507194006 | 67 | 234 | 1.7 | 8.7 | 0.00 | 0.00 | 0.00 | 16 | 1021.0 |
| 20260507193601 | 67 | 286 | 3.5 | 8.7 | 0.00 | 0.00 | 0.00 | 16 | 1021.1 |
| 20260507193005 | 67 | 281 | 5.2 | 8.7 | 0.00 | 0.00 | 0.00 | 17 | 1021.1 |
| 20260507192559 | 67 | 335 | 0.9 | 6.1 | 0.00 | 0.00 | 0.00 | 17 | 1021.2 |
| 20260507192050 | 66 | 209 | 2.6 | 5.2 | 0.00 | 0.00 | 0.00 | 17 | 1021.4 |
| 20260507191558 | 65 | 234 | 0.0 | 4.3 | 0.00 | 0.00 | 0.00 | 17 | 1021.6 |
| 20260507191048 | 64 | 323 | 1.7 | 6.1 | 0.00 | 0.00 | 0.00 | 18 | 1021.6 |
| 20260507190555 | 64 | 271 | 3.5 | 8.7 | 0.00 | 0.00 | 0.00 | 18 | 1021.7 |
| 20260507190100 | 63 | 225 | 2.6 | 8.7 | 0.00 | 0.00 | 0.00 | 19 | 1021.7 |
| 20260507185502 | 62 | 313 | 5.2 | 8.7 | 0.00 | 0.00 | 0.00 | 19 | 1021.8 |
| 20260507185100 | 63 | 338 | 1.7 | 10.4 | 0.00 | 0.00 | 0.00 | 19 | 1021.8 |
| 20260507184607 | 63 | 248 | 5.2 | 10.4 | 0.00 | 0.00 | 0.00 | 18 | 1022.0 |
| 20260507184054 | 63 | 314 | 1.7 | 7.0 | 0.00 | 0.00 | 0.00 | 18 | 1021.9 |
| 20260507183542 | 62 | 333 | 2.6 | 7.0 | 0.00 | 0.00 | 0.00 | 19 | 1022.0 |
| 20260507183049 | 62 | 265 | 2.6 | 7.8 | 0.00 | 0.00 | 0.00 | 19 | 1022.1 |
| 20260507182555 | 62 | 293 | 3.5 | 7.8 | 0.00 | 0.00 | 0.00 | 19 | 1022.2 |
| 20260507182102 | 63 | 284 | 0.9 | 7.8 | 0.00 | 0.00 | 0.00 | 18 | 1022.1 |
| 20260507181503 | 63 | 304 | 3.5 | 7.8 | 0.00 | 0.00 | 0.00 | 19 | 1022.3 |
| 20260507181011 | 62 | 325 | 3.5 | 7.0 | 0.00 | 0.00 | 0.00 | 19 | 1022.4 |
| 20260507180516 | 63 | 263 | 1.7 | 7.0 | 0.00 | 0.00 | 0.00 | 19 | 1022.4 |
| 20260507180008 | 63 | 221 | 0.9 | 4.3 | 0.00 | 0.00 | 0.00 | 19 | 1022.5 |
| 20260507175605 | 62 | 222 | 1.7 | 7.0 | 0.00 | 0.00 | 0.00 | 19 | 1022.6 |
| 20260507175009 | 63 | 311 | 2.6 | 7.0 | 0.00 | 0.00 | 0.00 | 19 | 1022.6 |
| 20260507174602 | 63 | 205 | 3.5 | 7.0 | 0.00 | 0.00 | 0.00 | 19 | 1022.6 |
| 20260507174003 | 62 | 223 | 0.9 | 7.0 | 0.00 | 0.00 | 0.00 | 21 | 1022.6 |
| 20260507173559 | 62 | 221 | 3.5 | 7.0 | 0.00 | 0.00 | 0.00 | 21 | 1022.7 |
| 20260507173050 | 62 | 178 | 1.7 | 7.0 | 0.00 | 0.00 | 0.00 | 23 | 1022.6 |
| 20260507172557 | 61 | 242 | 0.9 | 6.1 | 0.00 | 0.00 | 0.00 | 23 | 1022.7 |
| 20260507172047 | 61 | 321 | 1.7 | 6.1 | 0.00 | 0.00 | 0.00 | 22 | 1022.9 |
| 20260507171545 | 61 | 304 | 2.6 | 6.1 | 0.00 | 0.00 | 0.00 | 21 | 1022.9 |
| 20260507171047 | 61 | 241 | 0.9 | 4.3 | 0.00 | 0.00 | 0.00 | 22 | 1023.0 |
| 20260507170535 | 60 | 173 | 0.9 | 7.8 | 0.00 | 0.00 | 0.00 | 23 | 1023.0 |
| 20260507170044 | 60 | 166 | 1.7 | 7.8 | 0.00 | 0.00 | 0.00 | 23 | 1023.0 |
| 20260507165550 | 60 | 165 | 2.6 | 6.1 | 0.00 | 0.00 | 0.00 | 25 | 1023.0 |
| 20260507165058 | 59 | 196 | 0.9 | 5.2 | 0.00 | 0.00 | 0.00 | 24 | 1023.0 |
| 20260507164549 | 58 | 140 | 0.9 | 6.1 | 0.00 | 0.00 | 0.00 | 26 | 1023.1 |
| 20260507164057 | 57 | 53 | 1.7 | 5.2 | 0.00 | 0.00 | 0.00 | 24 | 1023.0 |
| 20260507163606 | 57 | 57 | 2.6 | 5.2 | 0.00 | 0.00 | 0.00 | 26 | 1023.0 |
| 20260507163006 | 58 | 99 | 2.6 | 5.2 | 0.00 | 0.00 | 0.00 | 25 | 1023.1 |
| 20260507162602 | 58 | 191 | 1.7 | 4.3 | 0.00 | 0.00 | 0.00 | 26 | 1023.3 |
| 20260507162005 | 57 | 82 | 0.9 | 4.3 | 0.00 | 0.00 | 0.00 | 26 | 1023.3 |
| 20260507161600 | 56 | 168 | 2.6 | 4.3 | 0.00 | 0.00 | 0.00 | 27 | 1023.4 |
| 20260507161105 | 55 | 77 | 1.7 | 4.3 | 0.00 | 0.00 | 0.00 | 28 | 1023.4 |
| 20260507160556 | 55 | 97 | 1.7 | 5.2 | 0.00 | 0.00 | 0.00 | 28 | 1023.5 |
| 20260507160047 | 55 | 161 | 1.7 | 5.2 | 0.00 | 0.00 | 0.00 | 28 | 1023.5 |
| 20260507155554 | 54 | 136 | 1.7 | 6.1 | 0.00 | 0.00 | 0.00 | 29 | 1023.5 |
| 20260507155104 | 54 | 76 | 3.5 | 7.0 | 0.00 | 0.00 | 0.00 | 29 | 1023.5 |
| 20260507154504 | 53 | 103 | 3.5 | 7.8 | 0.00 | 0.00 | 0.00 | 30 | 1023.5 |
| 20260507154100 | 53 | 99 | 2.6 | 7.8 | 0.00 | 0.00 | 0.00 | 30 | 1023.5 |
| 20260507153504 | 52 | 124 | 3.5 | 8.7 | 0.00 | 0.00 | 0.00 | 30 | 1023.6 |
| 20260507153058 | 51 | 102 | 4.3 | 8.7 | 0.00 | 0.00 | 0.00 | 31 | 1023.6 |
| 20260507152552 | 51 | 103 | 6.1 | 8.7 | 0.00 | 0.00 | 0.00 | 30 | 1023.7 |
| 20260507152057 | 51 | 101 | 3.5 | 10.4 | 0.00 | 0.00 | 0.00 | 31 | 1023.7 |
| 20260507151605 | 50 | 137 | 4.3 | 10.4 | 0.00 | 0.00 | 0.00 | 32 | 1023.7 |
| 20260507151005 | 50 | 101 | 3.5 | 7.8 | 0.00 | 0.00 | 0.00 | 32 | 1023.7 |
| 20260507150601 | 49 | 100 | 4.3 | 8.7 | 0.00 | 0.00 | 0.00 | 33 | 1023.7 |
| 20260507150006 | 48 | 136 | 4.3 | 9.6 | 0.00 | 0.00 | 0.00 | 34 | 1023.8 |
| 20260507145601 | 48 | 88 | 6.1 | 9.6 | 0.00 | 0.00 | 0.00 | 34 | 1023.8 |
| 20260507145003 | 47 | 67 | 3.5 | 10.4 | 0.00 | 0.00 | 0.00 | 35 | 1023.9 |
| 20260507144600 | 47 | 97 | 5.2 | 10.4 | 0.00 | 0.00 | 0.00 | 35 | 1023.9 |
| 20260507144049 | 47 | 76 | 6.1 | 10.4 | 0.00 | 0.00 | 0.00 | 35 | 1023.9 |
| 20260507143555 | 46 | 69 | 4.3 | 10.4 | 0.00 | 0.00 | 0.00 | 36 | 1024.0 |
| 20260507143111 | 46 | 108 | 4.3 | 9.6 | 0.00 | 0.00 | 0.00 | 37 | 1023.9 |
| 20260507142504 | 45 | 90 | 5.2 | 9.6 | 0.00 | 0.00 | 0.00 | 36 | 1024.0 |
| 20260507142058 | 45 | 100 | 6.1 | 8.7 | 0.00 | 0.00 | 0.00 | 36 | 1023.9 |
| 20260507141502 | 44 | 86 | 4.3 | 9.6 | 0.00 | 0.00 | 0.00 | 37 | 1023.8 |
| 20260507141100 | 43 | 93 | 5.2 | 9.6 | 0.00 | 0.00 | 0.00 | 36 | 1023.8 |
| 20260507140606 | 43 | 109 | 4.3 | 9.6 | 0.00 | 0.00 | 0.00 | 36 | 1023.7 |
| 20260507140058 | 42 | 91 | 5.2 | 9.6 | 0.00 | 0.00 | 0.00 | 36 | 1023.8 |
| 20260507135604 | 41 | 71 | 5.2 | 8.7 | 0.00 | 0.00 | 0.00 | 36 | 1023.7 |
| 20260507135007 | 41 | 78 | 4.3 | 7.8 | 0.00 | 0.00 | 0.00 | 37 | 1023.7 |
| 20260507134603 | 40 | 96 | 4.3 | 7.0 | 0.00 | 0.00 | 0.00 | 38 | 1023.7 |
| 20260507134006 | 39 | 94 | 3.5 | 7.0 | 0.00 | 0.00 | 0.00 | 40 | 1023.6 |
| 20260507133513 | 38 | 107 | 3.5 | 7.0 | 0.00 | 0.00 | 0.00 | 41 | 1023.6 |
| 20260507133022 | 37 | 100 | 3.5 | 7.8 | 0.00 | 0.00 | 0.00 | 43 | 1023.6 |
| 20260507132524 | 37 | 107 | 4.3 | 7.8 | 0.00 | 0.00 | 0.00 | 43 | 1023.6 |
| 20260507132032 | 36 | 131 | 4.3 | 7.8 | 0.00 | 0.00 | 0.00 | 44 | 1023.6 |
| 20260507131552 | 36 | 98 | 4.3 | 9.6 | 0.00 | 0.00 | 0.00 | 44 | 1023.6 |
| 20260507131048 | 35 | 101 | 4.3 | 9.6 | 0.00 | 0.00 | 0.00 | 45 | 1023.6 |
| 20260507130537 | 35 | 132 | 4.3 | 8.7 | 0.00 | 0.00 | 0.00 | 45 | 1023.5 |
| 20260507130045 | 35 | 113 | 5.2 | 8.7 | 0.00 | 0.00 | 0.00 | 46 | 1023.5 |
| 20260507125552 | 34 | 92 | 4.3 | 7.0 | 0.00 | 0.00 | 0.00 | 47 | 1023.5 |
| 20260507125059 | 34 | 107 | 4.3 | 7.0 | 0.00 | 0.00 | 0.00 | 49 | 1023.4 |
| 20260507124550 | 33 | 72 | 3.5 | 6.1 | 0.00 | 0.00 | 0.00 | 52 | 1023.4 |
| 20260507124059 | 33 | 103 | 3.5 | 6.1 | 0.00 | 0.00 | 0.00 | 53 | 1023.4 |
| 20260507123604 | 32 | 112 | 2.6 | 5.2 | 0.00 | 0.00 | 0.00 | 51 | 1023.5 |
| 20260507123006 | 32 | 105 | 2.6 | 5.2 | 0.00 | 0.00 | 0.00 | 50 | 1023.5 |
| 20260507122602 | 32 | 113 | 1.7 | 3.5 | 0.00 | 0.00 | 0.00 | 51 | 1023.5 |
| 20260507122006 | 31 | 84 | 0.9 | 2.6 | 0.00 | 0.00 | 0.00 | 53 | 1023.4 |
| 20260507121602 | 31 | 95 | 0.9 | 2.6 | 0.00 | 0.00 | 0.00 | 52 | 1023.4 |
| 20260507121002 | 31 | 89 | 0.9 | 2.6 | 0.00 | 0.00 | 0.00 | 51 | 1023.3 |
| 20260507120557 | 31 | 100 | 1.7 | 1.7 | 0.00 | 0.00 | 0.00 | 51 | 1023.3 |
| 20260507120048 | 31 | 99 | 1.7 | 1.7 | 0.00 | 0.00 | 0.00 | 50 | 1023.4 |
| 20260507115557 | 31 | 100 | 1.7 | 2.6 | 0.00 | 0.00 | 0.00 | 50 | 1023.4 |
| 20260507115101 | 32 | 100 | 1.7 | 2.6 | 0.00 | 0.00 | 0.00 | 50 | 1023.3 |
| 20260507114505 | 32 | 100 | 1.7 | 2.6 | 0.00 | 0.00 | 0.00 | 49 | 1023.3 |
| 20260507114100 | 32 | 98 | 0.9 | 2.6 | 0.00 | 0.00 | 0.00 | 49 | 1023.3 |
| 20260507113504 | 32 | 98 | 1.7 | 3.5 | 0.00 | 0.00 | 0.00 | 49 | 1023.3 |
| 20260507113102 | 32 | 101 | 2.6 | 3.5 | 0.00 | 0.00 | 0.00 | 48 | 1023.2 |
| 20260507112553 | 32 | 97 | 1.7 | 3.5 | 0.00 | 0.00 | 0.00 | 48 | 1023.2 |
| 20260507112100 | 32 | 101 | 2.6 | 2.6 | 0.00 | 0.00 | 0.00 | 47 | 1023.2 |
| 20260507111549 | 32 | 95 | 1.7 | 2.6 | 0.00 | 0.00 | 0.00 | 46 | 1023.1 |
| 20260507111056 | 33 | 104 | 1.7 | 3.5 | 0.00 | 0.00 | 0.00 | 46 | 1023.1 |
| 20260507110603 | 33 | 90 | 1.7 | 3.5 | 0.00 | 0.00 | 0.00 | 46 | 1023.3 |
| 20260507110008 | 33 | 95 | 1.7 | 2.6 | 0.00 | 0.00 | 0.00 | 45 | 1023.2 |
| 20260507105558 | 33 | 92 | 1.7 | 2.6 | 0.00 | 0.00 | 0.00 | 45 | 1023.1 |
| 20260507105104 | 34 | 110 | 1.7 | 3.5 | 0.00 | 0.00 | 0.00 | 44 | 1023.2 |
| 20260507104555 | 34 | 98 | 1.7 | 3.5 | 0.00 | 0.00 | 0.00 | 44 | 1023.1 |
| 20260507104045 | 34 | 111 | 1.7 | 3.5 | 0.00 | 0.00 | 0.00 | 43 | 1023.1 |
| 20260507103554 | 35 | 102 | 1.7 | 3.5 | 0.00 | 0.00 | 0.00 | 43 | 1023.0 |
| 20260507103100 | 36 | 107 | 1.7 | 2.6 | 0.00 | 0.00 | 0.00 | 42 | 1023.0 |
| 20260507102503 | 36 | 105 | 1.7 | 2.6 | 0.00 | 0.00 | 0.00 | 41 | 1023.0 |
| 20260507102102 | 36 | 90 | 1.7 | 2.6 | 0.00 | 0.00 | 0.00 | 41 | 1023.1 |
| 20260507101502 | 37 | 86 | 1.7 | 4.3 | 0.00 | 0.00 | 0.00 | 41 | 1023.1 |
| 20260507101057 | 37 | 84 | 1.7 | 4.3 | 0.00 | 0.00 | 0.00 | 40 | 1023.0 |
| 20260507100604 | 37 | 77 | 2.6 | 4.3 | 0.00 | 0.00 | 0.00 | 39 | 1022.9 |
| 20260507100049 | 37 | 95 | 2.6 | 4.3 | 0.00 | 0.00 | 0.00 | 39 | 1022.9 |
| 20260507095557 | 37 | 57 | 1.7 | 5.2 | 0.00 | 0.00 | 0.00 | 40 | 1022.9 |
| 20260507095104 | 36 | 55 | 3.5 | 5.2 | 0.00 | 0.00 | 0.00 | 40 | 1022.8 |
| 20260507094503 | 36 | 36 | 0.9 | 3.5 | 0.00 | 0.00 | 0.00 | 41 | 1022.8 |
| 20260507094101 | 36 | 38 | 1.7 | 3.5 | 0.00 | 0.00 | 0.00 | 41 | 1022.8 |
| 20260507093501 | 36 | 55 | 0.0 | 1.7 | 0.00 | 0.00 | 0.00 | 40 | 1022.8 |
| 20260507093101 | 36 | 55 | 0.9 | 2.6 | 0.00 | 0.00 | 0.00 | 41 | 1022.9 |
| 20260507092550 | 36 | 55 | 1.7 | 2.6 | 0.00 | 0.00 | 0.00 | 41 | 1022.8 |
| 20260507092056 | 36 | 36 | 0.9 | 2.6 | 0.00 | 0.00 | 0.00 | 41 | 1022.8 |
| 20260507091604 | 36 | 36 | 0.9 | 3.5 | 0.00 | 0.00 | 0.00 | 41 | 1022.8 |
| 20260507091005 | 36 | 32 | 0.9 | 4.3 | 0.00 | 0.00 | 0.00 | 41 | 1022.7 |
| 20260507090514 | 36 | 28 | 1.7 | 4.3 | 0.00 | 0.00 | 0.00 | 41 | 1022.6 |
| 20260507090021 | 36 | 26 | 1.7 | 3.5 | 0.00 | 0.00 | 0.00 | 41 | 1022.8 |
| 20260507085524 | 36 | 24 | 0.9 | 3.5 | 0.00 | 0.00 | 0.00 | 40 | 1022.7 |
| 20260507085032 | 37 | 18 | 2.6 | 3.5 | 0.00 | 0.00 | 0.00 | 40 | 1022.5 |
| 20260507084538 | 37 | 347 | 0.9 | 2.6 | 0.00 | 0.00 | 0.00 | 40 | 1022.6 |
| 20260507084045 | 37 | 348 | 0.9 | 2.6 | 0.00 | 0.00 | 0.00 | 39 | 1022.6 |
| 20260507083537 | 38 | 306 | 0.9 | 1.7 | 0.00 | 0.00 | 0.00 | 39 | 1022.6 |
| 20260507083045 | 38 | 306 | 0.9 | 1.7 | 0.00 | 0.00 | 0.00 | 38 | 1022.6 |
| 20260507082550 | 38 | 306 | 0.9 | 1.7 | 0.00 | 0.00 | 0.00 | 38 | 1022.6 |
| 20260507082102 | 38 | 306 | 0.0 | 1.7 | 0.00 | 0.00 | 0.00 | 38 | 1022.5 |
| 20260507081549 | 38 | 306 | 0.0 | 1.7 | 0.00 | 0.00 | 0.00 | 38 | 1022.6 |
| 20260507081058 | 38 | 306 | 0.0 | 1.7 | 0.00 | 0.00 | 0.00 | 38 | 1022.5 |
| 20260507080606 | 38 | 286 | 0.0 | 2.6 | 0.00 | 0.00 | 0.00 | 38 | 1022.5 |
| 20260507080005 | 39 | 286 | 1.7 | 2.6 | 0.00 | 0.00 | 0.00 | 38 | 1022.4 |
| 20260507075601 | 39 | 336 | 0.9 | 1.7 | 0.00 | 0.00 | 0.00 | 38 | 1022.5 |
| 20260507075005 | 39 | 336 | 0.0 | 1.7 | 0.00 | 0.00 | 0.00 | 37 | 1022.5 |
| 20260507074601 | 39 | 355 | 0.0 | 2.6 | 0.00 | 0.00 | 0.00 | 37 | 1022.4 |
| 20260507074051 | 39 | 355 | 1.7 | 2.6 | 0.00 | 0.00 | 0.00 | 37 | 1022.5 |
| 20260507073557 | 40 | 338 | 0.9 | 1.7 | 0.00 | 0.00 | 0.00 | 36 | 1022.5 |
| 20260507073048 | 40 | 328 | 0.0 | 1.7 | 0.00 | 0.00 | 0.00 | 36 | 1022.6 |
| 20260507072539 | 40 | 311 | 0.9 | 2.6 | 0.00 | 0.00 | 0.00 | 36 | 1022.7 |
| 20260507072049 | 40 | 12 | 0.9 | 3.5 | 0.00 | 0.00 | 0.00 | 36 | 1022.6 |
| 20260507071608 | 40 | 9 | 2.6 | 3.5 | 0.00 | 0.00 | 0.00 | 36 | 1022.5 |
| 20260507071102 | 41 | 15 | 1.7 | 7.0 | 0.00 | 0.00 | 0.00 | 36 | 1022.5 |
| 20260507070551 | 41 | 10 | 3.5 | 7.8 | 0.00 | 0.00 | 0.00 | 36 | 1022.4 |
| 20260507070059 | 41 | 24 | 4.3 | 7.8 | 0.00 | 0.00 | 0.00 | 36 | 1022.4 |
| 20260507065608 | 41 | 19 | 3.5 | 7.0 | 0.00 | 0.00 | 0.00 | 35 | 1022.3 |
| 20260507065008 | 41 | 355 | 3.5 | 7.0 | 0.00 | 0.00 | 0.00 | 36 | 1022.4 |
| 20260507064600 | 41 | 16 | 2.6 | 5.2 | 0.00 | 0.00 | 0.00 | 35 | 1022.5 |
| 20260507064005 | 41 | 36 | 1.7 | 5.2 | 0.00 | 0.00 | 0.00 | 35 | 1022.5 |
| 20260507063558 | 41 | 49 | 2.6 | 5.2 | 0.00 | 0.00 | 0.00 | 35 | 1022.5 |
| 20260507063048 | 41 | 51 | 2.6 | 5.2 | 0.00 | 0.00 | 0.00 | 35 | 1022.4 |
| 20260507062555 | 41 | 33 | 2.6 | 4.3 | 0.00 | 0.00 | 0.00 | 35 | 1022.4 |
| 20260507062048 | 41 | 47 | 2.6 | 4.3 | 0.00 | 0.00 | 0.00 | 35 | 1022.4 |
| 20260507061559 | 41 | 38 | 0.9 | 3.5 | 0.00 | 0.00 | 0.00 | 34 | 1022.4 |
| 20260507061100 | 42 | 18 | 1.7 | 3.5 | 0.00 | 0.00 | 0.00 | 34 | 1022.3 |
| 20260507060502 | 42 | 5 | 2.6 | 3.5 | 0.00 | 0.00 | 0.00 | 34 | 1022.2 |
| 20260507060007 | 43 | 344 | 1.7 | 2.6 | 0.00 | 0.00 | 0.00 | 33 | 1022.2 |
| 20260507055603 | 43 | 306 | 0.9 | 2.6 | 0.00 | 0.00 | 0.00 | 33 | 1022.3 |
| 20260507055005 | 43 | 319 | 1.7 | 4.3 | 0.00 | 0.00 | 0.00 | 33 | 1022.1 |
| 20260507054602 | 44 | 317 | 2.6 | 4.3 | 0.00 | 0.00 | 0.00 | 33 | 1022.1 |
| 20260507054103 | 44 | 323 | 2.6 | 4.3 | 0.00 | 0.00 | 0.00 | 33 | 1022.0 |
| 20260507053505 | 44 | 322 | 1.7 | 3.5 | 0.00 | 0.00 | 0.00 | 32 | 1022.0 |
| 20260507053129 | 45 | 302 | 1.7 | 6.1 | 0.00 | 0.00 | 0.00 | 32 | 1022.0 |
| 20260507052501 | 45 | 303 | 3.5 | 5.2 | 0.00 | 0.00 | 0.00 | 32 | 1022.0 |
| 20260507052056 | 45 | 325 | 3.5 | 5.2 | 0.00 | 0.00 | 0.00 | 32 | 1022.0 |
| 20260507051555 | 45 | 302 | 2.6 | 7.0 | 0.00 | 0.00 | 0.00 | 32 | 1021.8 |
| 20260507051054 | 45 | 300 | 4.3 | 7.0 | 0.00 | 0.00 | 0.00 | 32 | 1021.8 |
| 20260507050547 | 46 | 302 | 4.3 | 7.0 | 0.00 | 0.00 | 0.00 | 31 | 1021.8 |
| 20260507050052 | 46 | 309 | 4.3 | 7.8 | 0.00 | 0.00 | 0.00 | 31 | 1021.7 |
| 20260507045558 | 46 | 303 | 4.3 | 7.8 | 0.00 | 0.00 | 0.00 | 31 | 1021.7 |
| 20260507045004 | 46 | 299 | 5.2 | 7.8 | 0.00 | 0.00 | 0.00 | 31 | 1021.7 |
| 20260507044558 | 47 | 307 | 4.3 | 7.8 | 0.00 | 0.00 | 0.00 | 30 | 1021.6 |
| 20260507044104 | 47 | 319 | 4.3 | 7.8 | 0.00 | 0.00 | 0.00 | 30 | 1021.6 |
| 20260507043555 | 47 | 319 | 3.5 | 7.0 | 0.00 | 0.00 | 0.00 | 30 | 1021.6 |
| 20260507043101 | 47 | 321 | 4.3 | 9.6 | 0.00 | 0.00 | 0.00 | 30 | 1021.6 |
| 20260507042552 | 47 | 300 | 5.2 | 9.6 | 0.00 | 0.00 | 0.00 | 30 | 1021.5 |
| 20260507042043 | 47 | 333 | 5.2 | 8.7 | 0.00 | 0.00 | 0.00 | 30 | 1021.4 |
| 20260507041552 | 47 | 317 | 4.3 | 7.8 | 0.00 | 0.00 | 0.00 | 30 | 1021.4 |
| 20260507041059 | 47 | 321 | 4.3 | 7.8 | 0.00 | 0.00 | 0.00 | 30 | 1021.4 |
| 20260507040605 | 48 | 302 | 3.5 | 7.8 | 0.00 | 0.00 | 0.00 | 29 | 1021.3 |
| 20260507040055 | 48 | 319 | 5.2 | 7.8 | 0.00 | 0.00 | 0.00 | 29 | 1021.3 |
| 20260507035604 | 48 | 313 | 5.2 | 7.8 | 0.00 | 0.00 | 0.00 | 28 | 1021.3 |
| 20260507035004 | 49 | 316 | 5.2 | 9.6 | 0.00 | 0.00 | 0.00 | 28 | 1021.2 |
| 20260507034527 | 49 | 299 | 5.2 | 12.2 | 0.00 | 0.00 | 0.00 | 28 | 1021.1 |
| 20260507034002 | 49 | 315 | 7.0 | 12.2 | 0.00 | 0.00 | 0.00 | 27 | 1021.0 |
| 20260507033511 | 49 | 295 | 7.8 | 12.2 | 0.00 | 0.00 | 0.00 | 27 | 1020.9 |
| 20260507033006 | 49 | 304 | 7.8 | 11.3 | 0.00 | 0.00 | 0.00 | 27 | 1020.8 |
| 20260507032509 | 50 | 317 | 7.8 | 12.2 | 0.00 | 0.00 | 0.00 | 27 | 1020.8 |
| 20260507032102 | 50 | 320 | 7.8 | 12.2 | 0.00 | 0.00 | 0.00 | 26 | 1020.8 |
| 20260507031555 | 50 | 295 | 8.7 | 12.2 | 0.00 | 0.00 | 0.00 | 26 | 1020.8 |
| 20260507031101 | 50 | 321 | 6.1 | 11.3 | 0.00 | 0.00 | 0.00 | 25 | 1020.7 |
| 20260507030551 | 51 | 319 | 7.0 | 12.2 | 0.00 | 0.00 | 0.00 | 25 | 1020.6 |
| 20260507030058 | 51 | 311 | 7.8 | 12.2 | 0.00 | 0.00 | 0.00 | 24 | 1020.6 |
| 20260507025548 | 51 | 326 | 7.0 | 12.2 | 0.00 | 0.00 | 0.00 | 24 | 1020.5 |
| 20260507025039 | 52 | 317 | 7.8 | 13.0 | 0.00 | 0.00 | 0.00 | 23 | 1020.5 |
| 20260507024550 | 52 | 329 | 8.7 | 13.0 | 0.00 | 0.00 | 0.00 | 23 | 1020.5 |
| 20260507024038 | 52 | 329 | 8.7 | 13.9 | 0.00 | 0.00 | 0.00 | 23 | 1020.3 |
| 20260507023543 | 52 | 295 | 9.6 | 13.9 | 0.00 | 0.00 | 0.00 | 22 | 1020.4 |
| 20260507023048 | 52 | 342 | 7.0 | 13.0 | 0.00 | 0.00 | 0.00 | 22 | 1020.3 |
| 20260507022557 | 52 | 271 | 8.7 | 15.6 | 0.00 | 0.00 | 0.00 | 22 | 1020.4 |
| 20260507022047 | 53 | 317 | 8.7 | 17.4 | 0.00 | 0.00 | 0.00 | 22 | 1020.1 |
| 20260507021553 | 53 | 311 | 8.7 | 15.6 | 0.00 | 0.00 | 0.00 | 22 | 1020.0 |
| 20260507021100 | 53 | 322 | 9.6 | 15.6 | 0.00 | 0.00 | 0.00 | 21 | 1019.9 |
| 20260507020502 | 54 | 317 | 9.6 | 14.8 | 0.00 | 0.00 | 0.00 | 21 | 1019.8 |
| 20260507020006 | 54 | 321 | 10.4 | 13.9 | 0.00 | 0.00 | 0.00 | 22 | 1019.9 |
| 20260507015559 | 54 | 310 | 9.6 | 14.8 | 0.00 | 0.00 | 0.00 | 21 | 1019.9 |
| 20260507015004 | 55 | 317 | 9.6 | 14.8 | 0.00 | 0.00 | 0.00 | 22 | 1019.9 |
| 20260507014612 | 55 | 299 | 7.0 | 14.8 | 0.00 | 0.00 | 0.00 | 22 | 1019.8 |
| 20260507014103 | 56 | 315 | 8.7 | 14.8 | 0.00 | 0.00 | 0.00 | 22 | 1019.8 |
| 20260507013505 | 56 | 330 | 7.0 | 13.9 | 0.00 | 0.00 | 0.00 | 22 | 1019.7 |
| 20260507013103 | 56 | 333 | 9.6 | 13.0 | 0.00 | 0.00 | 0.00 | 22 | 1019.6 |
| 20260507012508 | 57 | 321 | 7.8 | 15.6 | 0.00 | 0.00 | 0.00 | 22 | 1019.5 |
| 20260507012100 | 57 | 316 | 8.7 | 15.6 | 0.00 | 0.00 | 0.00 | 22 | 1019.5 |
| 20260507011504 | 57 | 333 | 7.8 | 16.5 | 0.00 | 0.00 | 0.00 | 22 | 1019.3 |
| 20260507011056 | 57 | 340 | 8.7 | 16.5 | 0.00 | 0.00 | 0.00 | 22 | 1019.4 |
| 20260507010547 | 57 | 340 | 10.4 | 17.4 | 0.00 | 0.00 | 0.00 | 21 | 1019.3 |
| 20260507010104 | 57 | 355 | 11.3 | 17.4 | 0.00 | 0.00 | 0.00 | 21 | 1019.2 |
| 20260507005545 | 58 | 325 | 9.6 | 17.4 | 0.00 | 0.00 | 0.00 | 22 | 1019.1 |
| 20260507005053 | 58 | 331 | 11.3 | 17.4 | 0.00 | 0.00 | 0.00 | 21 | 1019.1 |
| 20260507004612 | 58 | 323 | 12.2 | 17.4 | 0.00 | 0.00 | 0.00 | 21 | 1019.0 |
| 20260507004105 | 58 | 342 | 11.3 | 19.1 | 0.00 | 0.00 | 0.00 | 21 | 1018.9 |
| 20260507003555 | 58 | 337 | 12.2 | 19.1 | 0.00 | 0.00 | 0.00 | 22 | 1018.9 |
| 20260507003105 | 58 | 15 | 10.4 | 18.2 | 0.00 | 0.00 | 0.00 | 22 | 1018.9 |
| 20260507002555 | 58 | 319 | 12.2 | 17.4 | 0.00 | 0.00 | 0.00 | 22 | 1019.0 |
| 20260507002101 | 58 | 355 | 11.3 | 18.2 | 0.00 | 0.00 | 0.00 | 21 | 1019.0 |
| 20260507001555 | 58 | 311 | 11.3 | 19.1 | 0.00 | 0.00 | 0.00 | 20 | 1018.9 |
| 20260507001043 | 59 | 307 | 12.2 | 18.2 | 0.00 | 0.00 | 0.00 | 18 | 1018.8 |
| 20260507000550 | 59 | 324 | 9.6 | 20.9 | 0.00 | 0.00 | 0.00 | 21 | 1018.7 |
| 20260507000057 | 59 | 348 | 13.0 | 20.9 | 0.00 | 0.00 | 0.00 | 21 | 1018.6 |
| 20260506235605 | 59 | 294 | 13.0 | 23.5 | 0.00 | 0.00 | 0.00 | 21 | 1018.6 |
| 20260506235054 | 59 | 340 | 13.9 | 23.5 | 0.00 | 0.00 | 0.00 | 22 | 1018.5 |
| 20260506234603 | 59 | 308 | 14.8 | 22.6 | 0.00 | 0.00 | 0.00 | 20 | 1018.4 |
| 20260506234055 | 59 | 340 | 13.9 | 21.7 | 0.00 | 0.00 | 0.00 | 19 | 1018.3 |
| 20260506233600 | 59 | 333 | 12.2 | 22.6 | 0.00 | 0.00 | 0.00 | 22 | 1018.2 |
| 20260506233055 | 59 | 340 | 13.9 | 26.1 | 0.00 | 0.00 | 0.00 | 21 | 1018.2 |
| 20260506232555 | 59 | 349 | 15.6 | 26.1 | 0.00 | 0.00 | 0.00 | 22 | 1018.2 |
| 20260506232102 | 60 | 321 | 12.2 | 21.7 | 0.00 | 0.00 | 0.00 | 23 | 1018.3 |
| 20260506231553 | 59 | 336 | 13.9 | 22.6 | 0.00 | 0.00 | 0.00 | 22 | 1018.2 |
| 20260506231105 | 60 | 303 | 13.9 | 22.6 | 0.00 | 0.00 | 0.00 | 23 | 1018.1 |
| 20260506230552 | 60 | 344 | 14.8 | 21.7 | 0.00 | 0.00 | 0.00 | 24 | 1018.1 |
| 20260506230058 | 60 | 319 | 12.2 | 22.6 | 0.00 | 0.00 | 0.00 | 23 | 1018.1 |
| 20260506225550 | 60 | 15 | 10.4 | 22.6 | 0.00 | 0.00 | 0.00 | 25 | 1018.0 |
| 20260506225039 | 60 | 327 | 13.9 | 23.5 | 0.00 | 0.00 | 0.00 | 25 | 1018.0 |
| 20260506224547 | 60 | 324 | 13.0 | 23.5 | 0.00 | 0.00 | 0.00 | 25 | 1017.9 |
| 20260506224039 | 60 | 360 | 13.0 | 22.6 | 0.00 | 0.00 | 0.00 | 24 | 1017.9 |
| 20260506223545 | 61 | 297 | 11.3 | 22.6 | 0.00 | 0.00 | 0.00 | 21 | 1017.6 |
| 20260506223049 | 61 | 311 | 12.2 | 24.3 | 0.00 | 0.00 | 0.00 | 19 | 1017.8 |
| 20260506222558 | 61 | 313 | 14.8 | 23.5 | 0.00 | 0.00 | 0.00 | 20 | 1017.6 |
| 20260506222047 | 61 | 338 | 13.0 | 20.9 | 0.00 | 0.00 | 0.00 | 24 | 1017.8 |
| 20260506221555 | 60 | 307 | 12.2 | 20.9 | 0.00 | 0.00 | 0.00 | 24 | 1017.7 |
| 20260506221100 | 60 | 311 | 13.9 | 20.0 | 0.00 | 0.00 | 0.00 | 26 | 1017.7 |
| 20260506220502 | 60 | 348 | 13.0 | 20.0 | 0.00 | 0.00 | 0.00 | 26 | 1017.7 |
| 20260506220057 | 60 | 317 | 12.2 | 21.7 | 0.00 | 0.00 | 0.00 | 28 | 1017.7 |
| 20260506215604 | 61 | 308 | 11.3 | 21.7 | 0.00 | 0.00 | 0.00 | 28 | 1017.8 |
| 20260506215054 | 61 | 342 | 12.2 | 22.6 | 0.00 | 0.00 | 0.00 | 26 | 1017.8 |